Time,TemperatureF,DewpointF,PressureIn,WindDirection,WindDirectionDegrees,WindSpeedMPH,WindSpeedGustMPH,Humidity,HourlyPrecipIn,Conditions,Clouds,dailyrainin,SoftwareType,DateUTC
2013-02-20 00:04:00,49.6,39.0,30.20,NE,47,3.0,5.0,66,0.00,,,0.00,weatherlink.com 1.10,2013-02-20 06:04:00,
2013-02-20 00:19:00,49.9,39.0,30.19,ENE,77,1.0,5.0,66,0.00,,,0.00,weatherlink.com 1.10,2013-02-20 06:19:00,
2013-02-20 00:34:00,50.0,39.0,30.18,East,79,6.0,7.0,66,0.00,,,0.00,weatherlink.com 1.10,2013-02-20 06:34:00,
2013-02-20 00:50:00,50.0,39.0,30.16,ENE,78,3.0,8.0,66,0.00,,,0.00,weatherlink.com 1.10,2013-02-20 06:50:00,
2013-02-20 01:05:00,49.9,39.0,30.16,East,79,3.0,12.0,67,0.00,,,0.00,weatherlink.com 1.10,2013-02-20 07:05:00,
2013-02-20 01:20:00,49.8,40.0,30.15,ESE,108,4.0,8.0,69,0.00,,,0.00,weatherlink.com 1.10,2013-02-20 07:20:00,
2013-02-20 01:35:00,49.6,40.0,30.15,ESE,104,4.0,8.0,70,0.00,,,0.00,weatherlink.com 1.10,2013-02-20 07:35:00,
2013-02-20 01:50:00,49.3,40.0,30.14,ENE,61,4.0,10.0,70,0.00,,,0.00,weatherlink.com 1.10,2013-02-20 07:50:00,
2013-02-20 02:05:00,48.8,39.0,30.16,NE,34,5.0,9.0,70,0.00,,,0.00,weatherlink.com 1.10,2013-02-20 08:05:00,
2013-02-20 02:20:00,48.3,39.0,30.16,East,84,5.0,7.0,71,0.00,,,0.00,weatherlink.com 1.10,2013-02-20 08:20:00,
2013-02-20 02:35:00,48.0,39.0,30.16,East,99,3.0,7.0,72,0.00,,,0.00,weatherlink.com 1.10,2013-02-20 08:35:00,
2013-02-20 02:50:00,47.6,39.0,30.15,East,101,2.0,7.0,72,0.00,,,0.00,weatherlink.com 1.10,2013-02-20 08:50:00,
2013-02-20 03:05:00,47.3,39.0,30.15,East,92,5.0,7.0,72,0.00,,,0.00,weatherlink.com 1.10,2013-02-20 09:05:00,
2013-02-20 03:20:00,47.1,38.0,30.17,East,91,2.0,6.0,71,0.00,,,0.00,weatherlink.com 1.10,2013-02-20 09:20:00,
2013-02-20 03:35:00,46.7,38.0,30.15,East,101,1.0,6.0,73,0.00,,,0.00,weatherlink.com 1.10,2013-02-20 09:35:00,
2013-02-20 03:50:00,46.3,38.0,30.15,ESE,108,4.0,6.0,74,0.00,,,0.00,weatherlink.com 1.10,2013-02-20 09:50:00,
2013-02-20 04:05:00,45.9,39.0,30.15,ESE,102,2.0,6.0,76,0.00,,,0.00,weatherlink.com 1.10,2013-02-20 10:05:00,
2013-02-20 04:20:00,46.2,38.0,30.14,ESE,112,4.0,9.0,74,0.00,,,0.00,weatherlink.com 1.10,2013-02-20 10:20:00,
2013-02-20 04:35:00,46.3,38.0,30.14,ENE,57,7.0,9.0,73,0.00,,,0.00,weatherlink.com 1.10,2013-02-20 10:35:00,
2013-02-20 04:50:00,46.7,37.0,30.15,East,93,7.0,8.0,70,0.00,,,0.00,weatherlink.com 1.10,2013-02-20 10:50:00,
2013-02-20 05:05:00,47.2,36.0,30.16,ESE,105,3.0,10.0,65,0.00,,,0.00,weatherlink.com 1.10,2013-02-20 11:05:00,
2013-02-20 05:20:00,47.3,35.0,30.16,East,86,4.0,8.0,62,0.00,,,0.00,weatherlink.com 1.10,2013-02-20 11:20:00,
2013-02-20 05:35:00,47.0,34.0,30.17,East,100,4.0,8.0,62,0.00,,,0.00,weatherlink.com 1.10,2013-02-20 11:35:00,
2013-02-20 05:50:00,46.8,35.0,30.16,East,79,6.0,8.0,63,0.00,,,0.00,weatherlink.com 1.10,2013-02-20 11:50:00,
2013-02-20 06:05:00,46.7,35.0,30.16,East,101,2.0,7.0,63,0.00,,,0.00,weatherlink.com 1.10,2013-02-20 12:05:00,
2013-02-20 06:20:00,46.6,34.0,30.16,ESE,103,5.0,8.0,62,0.00,,,0.00,weatherlink.com 1.10,2013-02-20 12:20:00,
2013-02-20 06:35:00,46.4,34.0,30.17,ENE,75,3.0,7.0,62,0.00,,,0.00,weatherlink.com 1.10,2013-02-20 12:35:00,
2013-02-20 06:50:00,46.1,34.0,30.18,ESE,115,2.0,5.0,63,0.00,,,0.00,weatherlink.com 1.10,2013-02-20 12:50:00,
2013-02-20 07:05:00,45.9,35.0,30.18,East,89,4.0,6.0,65,0.00,,,0.00,weatherlink.com 1.10,2013-02-20 13:05:00,
2013-02-20 07:20:00,45.9,35.0,30.18,East,85,2.0,7.0,66,0.00,,,0.00,weatherlink.com 1.10,2013-02-20 13:20:00,
2013-02-20 07:35:00,46.3,35.0,30.18,NE,41,3.0,6.0,65,0.00,,,0.00,weatherlink.com 1.10,2013-02-20 13:35:00,
2013-02-20 07:50:00,46.8,34.0,30.17,ESE,105,5.0,10.0,62,0.00,,,0.00,weatherlink.com 1.10,2013-02-20 13:50:00,
2013-02-20 08:05:00,47.3,33.0,30.18,East,91,3.0,9.0,57,0.00,,,0.00,weatherlink.com 1.10,2013-02-20 14:05:00,
2013-02-20 08:20:00,47.9,32.0,30.19,ESE,108,3.0,9.0,55,0.00,,,0.00,weatherlink.com 1.10,2013-02-20 14:20:00,
2013-02-20 08:35:00,48.1,31.0,30.20,ENE,63,4.0,9.0,53,0.00,,,0.00,weatherlink.com 1.10,2013-02-20 14:35:00,
2013-02-20 08:50:00,48.5,31.0,30.20,ENE,73,4.0,9.0,52,0.00,,,0.00,weatherlink.com 1.10,2013-02-20 14:50:00,
2013-02-20 09:05:00,48.8,31.0,30.19,ENE,71,3.0,9.0,51,0.00,,,0.00,weatherlink.com 1.10,2013-02-20 15:05:00,
2013-02-20 09:21:00,49.1,30.0,30.18,East,96,5.0,14.0,49,0.00,,,0.00,weatherlink.com 1.10,2013-02-20 15:21:00,
2013-02-20 09:35:00,49.7,31.0,30.17,ESE,103,6.0,16.0,48,0.00,,,0.00,weatherlink.com 1.10,2013-02-20 15:35:00,
2013-02-20 09:50:00,49.7,31.0,30.16,East,101,7.0,14.0,48,0.00,,,0.00,weatherlink.com 1.10,2013-02-20 15:50:00,
2013-02-20 10:06:00,51.4,32.0,30.15,East,91,7.0,12.0,48,0.00,,,0.00,weatherlink.com 1.10,2013-02-20 16:06:00,
2013-02-20 10:21:00,52.0,32.0,30.15,East,95,11.0,18.0,47,0.00,,,0.00,weatherlink.com 1.10,2013-02-20 16:21:00,
2013-02-20 10:36:00,53.6,34.0,30.13,ESE,116,3.0,14.0,47,0.00,,,0.00,weatherlink.com 1.10,2013-02-20 16:36:00,
2013-02-20 10:51:00,54.0,34.0,30.15,ESE,112,5.0,15.0,47,0.00,,,0.00,weatherlink.com 1.10,2013-02-20 16:51:00,
2013-02-20 11:06:00,54.2,35.0,30.18,ESE,108,3.0,11.0,48,0.00,,,0.00,weatherlink.com 1.10,2013-02-20 17:06:00,
2013-02-20 11:21:00,54.9,36.0,30.15,East,90,3.0,7.0,49,0.00,,,0.00,weatherlink.com 1.10,2013-02-20 17:21:00,
2013-02-20 11:36:00,56.5,36.0,30.14,SW,235,5.0,11.0,46,0.00,,,0.00,weatherlink.com 1.10,2013-02-20 17:36:00,
2013-02-20 11:51:00,57.2,37.0,30.14,SSE,165,2.0,16.0,47,0.00,,,0.00,weatherlink.com 1.10,2013-02-20 17:51:00,
2013-02-20 12:06:00,57.3,36.0,30.13,NE,43,5.0,12.0,46,0.00,,,0.00,weatherlink.com 1.10,2013-02-20 18:06:00,
2013-02-20 12:21:00,58.5,38.0,30.11,East,86,3.0,11.0,47,0.00,,,0.00,weatherlink.com 1.10,2013-02-20 18:21:00,
2013-02-20 12:36:00,59.3,39.0,30.09,East,101,5.0,13.0,47,0.00,,,0.00,weatherlink.com 1.10,2013-02-20 18:36:00,
2013-02-20 12:51:00,59.5,40.0,30.09,SE,134,6.0,11.0,49,0.00,,,0.00,weatherlink.com 1.10,2013-02-20 18:51:00,
2013-02-20 13:06:00,59.0,41.0,30.08,East,89,6.0,11.0,51,0.00,,,0.00,weatherlink.com 1.10,2013-02-20 19:06:00,
2013-02-20 13:21:00,59.1,42.0,30.08,East,84,4.0,11.0,53,0.00,,,0.00,weatherlink.com 1.10,2013-02-20 19:21:00,
2013-02-20 13:36:00,60.1,42.0,30.08,ESE,108,8.0,15.0,51,0.00,,,0.00,weatherlink.com 1.10,2013-02-20 19:36:00,
2013-02-20 13:51:00,61.2,42.0,30.09,ESE,104,7.0,9.0,50,0.00,,,0.00,weatherlink.com 1.10,2013-02-20 19:51:00,
2013-02-20 14:06:00,60.9,43.0,30.07,ESE,105,12.0,12.0,52,0.00,,,0.00,weatherlink.com 1.10,2013-02-20 20:06:00,
2013-02-20 14:21:00,61.5,44.0,30.06,ESE,105,7.0,9.0,53,0.00,,,0.00,weatherlink.com 1.10,2013-02-20 20:21:00,
2013-02-20 14:36:00,60.9,44.0,30.05,ESE,104,3.0,12.0,54,0.00,,,0.00,weatherlink.com 1.10,2013-02-20 20:36:00,
2013-02-20 14:51:00,60.4,44.0,30.04,ESE,104,6.0,9.0,56,0.00,,,0.00,weatherlink.com 1.10,2013-02-20 20:51:00,
2013-02-20 15:07:00,60.2,45.0,30.02,ESE,103,3.0,14.0,57,0.00,,,0.00,weatherlink.com 1.10,2013-02-20 21:07:00,
2013-02-20 15:21:00,59.4,44.0,30.02,ESE,104,11.0,16.0,58,0.00,,,0.00,weatherlink.com 1.10,2013-02-20 21:21:00,
2013-02-20 15:36:00,58.9,45.0,30.02,East,87,14.0,14.0,60,0.00,,,0.00,weatherlink.com 1.10,2013-02-20 21:36:00,
2013-02-20 15:51:00,58.5,45.0,30.01,East,87,9.0,10.0,61,0.00,,,0.00,weatherlink.com 1.10,2013-02-20 21:51:00,
2013-02-20 16:06:00,58.3,45.0,30.00,East,85,8.0,12.0,62,0.00,,,0.00,weatherlink.com 1.10,2013-02-20 22:06:00,
2013-02-20 16:21:00,58.3,45.0,29.99,SE,146,6.0,9.0,62,0.00,,,0.00,weatherlink.com 1.10,2013-02-20 22:21:00,
2013-02-20 16:37:00,58.5,45.0,29.98,ESE,106,7.0,12.0,61,0.00,,,0.00,weatherlink.com 1.10,2013-02-20 22:37:00,
2013-02-20 16:51:00,58.3,45.0,29.98,ESE,103,6.0,10.0,61,0.00,,,0.00,weatherlink.com 1.10,2013-02-20 22:51:00,
2013-02-20 17:06:00,58.2,45.0,29.98,ENE,70,5.0,8.0,62,0.00,,,0.00,weatherlink.com 1.10,2013-02-20 23:06:00,
2013-02-20 17:22:00,58.2,45.0,29.98,East,94,5.0,9.0,62,0.00,,,0.00,weatherlink.com 1.10,2013-02-20 23:22:00,
2013-02-20 17:37:00,58.0,44.0,29.98,ESE,114,3.0,10.0,61,0.00,,,0.00,weatherlink.com 1.10,2013-02-20 23:37:00,
2013-02-20 17:52:00,57.8,44.0,29.98,ESE,110,5.0,7.0,61,0.00,,,0.00,weatherlink.com 1.10,2013-02-20 23:52:00,
2013-02-20 18:07:00,57.7,45.0,29.98,ESE,107,1.0,7.0,62,0.00,,,0.00,weatherlink.com 1.10,2013-02-21 00:07:00,
2013-02-20 18:22:00,57.7,44.0,29.99,East,91,5.0,6.0,61,0.00,,,0.00,weatherlink.com 1.10,2013-02-21 00:22:00,
2013-02-20 18:37:00,57.6,44.0,29.99,East,96,4.0,5.0,62,0.00,,,0.00,weatherlink.com 1.10,2013-02-21 00:37:00,
2013-02-20 18:52:00,57.4,44.0,29.99,ESE,104,2.0,7.0,61,0.00,,,0.00,weatherlink.com 1.10,2013-02-21 00:52:00,
2013-02-20 19:07:00,57.3,43.0,29.99,ESE,102,6.0,11.0,60,0.00,,,0.00,weatherlink.com 1.10,2013-02-21 01:07:00,
2013-02-20 19:22:00,57.0,42.0,29.98,ESE,107,8.0,11.0,58,0.00,,,0.00,weatherlink.com 1.10,2013-02-21 01:22:00,
2013-02-20 19:37:00,56.8,42.0,29.98,ENE,70,6.0,9.0,58,0.00,,,0.00,weatherlink.com 1.10,2013-02-21 01:37:00,
2013-02-20 19:52:00,56.5,42.0,29.98,ESE,107,6.0,9.0,58,0.00,,,0.00,weatherlink.com 1.10,2013-02-21 01:52:00,
2013-02-20 20:07:00,56.4,41.0,29.98,East,97,7.0,11.0,57,0.00,,,0.00,weatherlink.com 1.10,2013-02-21 02:07:00,
2013-02-20 20:22:00,56.2,41.0,29.97,East,84,4.0,10.0,58,0.00,,,0.00,weatherlink.com 1.10,2013-02-21 02:22:00,
2013-02-20 20:37:00,56.0,41.0,29.96,ESE,122,6.0,8.0,58,0.00,,,0.00,weatherlink.com 1.10,2013-02-21 02:37:00,
2013-02-20 20:52:00,56.0,42.0,29.96,East,95,3.0,11.0,59,0.00,,,0.00,weatherlink.com 1.10,2013-02-21 02:52:00,
2013-02-20 21:07:00,55.9,42.0,29.96,SE,139,3.0,9.0,60,0.00,,,0.00,weatherlink.com 1.10,2013-02-21 03:07:00,
2013-02-20 21:22:00,55.8,43.0,29.95,East,88,10.0,10.0,62,0.00,,,0.00,weatherlink.com 1.10,2013-02-21 03:22:00,
2013-02-20 21:37:00,55.7,43.0,29.95,East,92,3.0,12.0,63,0.00,,,0.00,weatherlink.com 1.10,2013-02-21 03:37:00,
2013-02-20 21:52:00,55.5,44.0,29.95,ESE,105,4.0,13.0,65,0.00,,,0.00,weatherlink.com 1.10,2013-02-21 03:52:00,
2013-02-20 22:07:00,55.3,44.0,29.95,East,82,4.0,10.0,66,0.00,,,0.00,weatherlink.com 1.10,2013-02-21 04:07:00,
2013-02-20 22:22:00,55.2,45.0,29.95,SE,132,7.0,10.0,68,0.00,,,0.00,weatherlink.com 1.10,2013-02-21 04:22:00,
2013-02-20 22:37:00,55.2,45.0,29.94,East,96,4.0,9.0,69,0.00,,,0.00,weatherlink.com 1.10,2013-02-21 04:37:00,
2013-02-20 22:52:00,55.1,45.0,29.94,ESE,120,4.0,10.0,70,0.00,,,0.00,weatherlink.com 1.10,2013-02-21 04:52:00,
2013-02-20 23:07:00,55.1,46.0,29.94,SE,131,4.0,8.0,71,0.00,,,0.00,weatherlink.com 1.10,2013-02-21 05:07:00,
2013-02-20 23:22:00,55.0,46.0,29.94,East,84,1.0,7.0,73,0.00,,,0.00,weatherlink.com 1.10,2013-02-21 05:22:00,
2013-02-20 23:37:00,54.8,47.0,29.95,ESE,107,3.0,5.0,74,0.00,,,0.00,weatherlink.com 1.10,2013-02-21 05:37:00,
2013-02-20 23:52:00,54.7,47.0,29.93,ESE,107,3.0,8.0,75,0.00,,,0.00,weatherlink.com 1.10,2013-02-21 05:52:00,